Location: Unspecified
(0.0000°N, 0.0000°E)
Time: 22:59:19
(UTC+00:00)

LightSail 2 - Pass Details

Date: 21 February 2020
Orbit: 698 x 724 km, 24.0° (Epoch: 26 February)

Event Time Altitude Azimuth Distance (km) Brightness Sun altitude
Rises 20:49:04 0° 230° (SW) 3,064 9.2 -38.1°
Reaches altitude 10° 20:51:40 10° 221° (SW) 2,146 8.1 -38.7°
Enters shadow 20:52:07 12° 219° (SW) 1,997 7.9 -38.8°
